Content
SEND FEEDBACK

Daily
Averages
Monthly
Summary
United States of America

PARKERSBURG, WEST VIRGINIA


Home > North America > United States > West Virginia
Elevation: 200 meters     Latitude: 39 16N     Longitude: 081 34W

WEATHER
 
SELECT A DAY
Number of Records: 206,358;   Date Range: 1/1/95 - 7/26/14
 
SHARE

PRINT THIS DATA

[ ← Previous Day ]
WEATHER ALMANAC - 6 MARCH, 2014
[ Next Day → ]
[ °F ]   °C
Weather ElementAverageHighLow
Temperature0.7 °C7.2 °C (2:53 pm)-6.1 °C (5:53 am)
Dewpoint-8.2 °C-5 °C (3:53 pm)-11.7 °C (3:53 am)
Humidity52.8 %66 % (7:53 am)40 % (2:53 pm)
Barometer1025.7 hPa1028.8 hPa (6:53 am)1021.7 hPa (11:53 pm)
Wind Speed10.5 km/h16.7 km/h (1:53 am)
Weather ElementAverage
Visibility16.1 km
Wind DirectionENE (54.3 °)

Weather ElementTotal
Precipitation---
Heating Degree Days17.8 (Base 18.3)
Averaged from 23 records on 6 March, 2014
WEATHER CONDITIONS BREAKOUT
WIND DIRECTION BREAKOUT
WEATHER BY HOUR - 6 MARCH, 2014
[ °F ]   °C
Local TimeTemperatureDewpointHumidityBarometerVisibilityWind DirectionWind SpeedGust SpeedPrecipitationEventsConditions
1:53 AM-4.4 °C-10.6 °C62 %1028.4 hPa16.1 kmNE (40°)16.7 km/hMostly Cloudy
2:53 AM-4.4 °C-11.1 °C60 %1027.8 hPa16.1 kmNE (40°)16.7 km/hMostly Cloudy
3:53 AM-5 °C-11.7 °C60 %1027.4 hPa16.1 kmNorth (10°)9.3 km/hPartly Cloudy
4:53 AM-5.6 °C-11.7 °C63 %1028.1 hPa16.1 kmNNE (20°)9.3 km/hScattered Clouds
5:53 AM-6.1 °C-11.7 °C65 %1028.1 hPa16.1 kmNE (40°)11.1 km/hClear
6:53 AM-6.1 °C-11.7 °C65 %1028.8 hPa16.1 kmNNE (20°)11.1 km/hClear
7:53 AM-5.6 °C-11.1 °C66 %1028.8 hPa16.1 kmNE (40°)11.1 km/hClear
8:53 AM-2.8 °C-10 °C58 %1028.8 hPa16.1 kmEast (80°)9.3 km/hClear
9:53 AM-1.1 °C-9.4 °C54 %1028.1 hPa16.1 kmEast (100°)13 km/hClear
10:53 AM1.7 °C-8.3 °C48 %1027.4 hPa16.1 kmNE (50°)11.1 km/hClear
11:53 AM2.8 °C-8.3 °C44 %1027.1 hPa16.1 kmESE (110°)7.4 km/hClear
12:53 PM5.6 °C-6.1 °C43 %1025.7 hPa16.1 kmENE (70°)13 km/hClear
1:53 PM6.7 °C-5.6 °C42 %1024.4 hPa16.1 kmEast (80°)13 km/hClear
2:53 PM7.2 °C-5.6 °C40 %1023.4 hPa16.1 kmNE (50°)11.1 km/hClear
3:53 PM7.2 °C-5 °C42 %1023.4 hPa16.1 kmNNE (30°)13 km/hClear
4:53 PM7.2 °C-5 °C42 %1023 hPa16.1 kmNE (50°)13 km/hClear
5:53 PM5.6 °C-5 °C47 %1023 hPa16.1 kmNE (50°)11.1 km/hClear
6:53 PM3.9 °C-5.6 °C50 %1023.4 hPa16.1 kmNE (40°)9.3 km/hClear
7:53 PM3.9 °C-6.7 °C46 %1023.4 hPa16.1 kmENE (60°)11.1 km/hClear
8:53 PM2.8 °C-6.7 °C50 %1023.4 hPa16.1 kmENE (70°)7.4 km/hClear
9:53 PM2.8 °C-7.2 °C48 %1022.7 hPa16.1 kmENE (70°)5.6 km/hClear
10:53 PM1.1 °C-7.2 °C54 %1022.7 hPa16.1 kmCalmClear
11:53 PM-1.1 °C-6.7 °C66 %1021.7 hPa16.1 kmSE (130°)7.4 km/hClear
Hourly data recorded from KPKB, located 0 kilometers away from Parkersburg, West Virginia







STORIES FROM OUR PARTNERS